Yakima, WA

12:07 PM PDT on April 26, 2017 (GMT -0700)
Yakima Air Term-McAllister

Weather History for KYKM - March, 2014

Change the Weather History Date:

Sunday, March 23, 2014

  Actual Average Record
Temperature  
Mean Temperature 45 °F 45 °F  
Max Temperature 61 °F 59 °F 77 °F (1960)
Min Temperature 28 °F 31 °F 18 °F (1994)
Degree Days  
Heating Degree Days 20 20  
Month to date heating degree days 476 522  
Since 1 July heating degree days 4878 5049  
Cooling Degree Days 0 0  
Month to date cooling degree days 0 0  
Year to date cooling degree days 0 0  
Moisture  
Dew Point 27 °F    
Average Humidity 54    
Maximum Humidity 78    
Minimum Humidity 29    
Precipitation  
Precipitation 0.00 in 0.02 in 0.44 in (1998)
Month to date precipitation 0.57 0.50  
Year to date precipitation 2.30 2.42  
Snow  
Snow 0.00 in 0.00 in 0.00 in (2002)
Month to date snowfall 1.7 0.6  
Year to date snowfall 19.9 8.5  
Since 1 July snowfall 19.9 21.5  
Snow Depth 0.00 in    
Sea Level Pressure  
Sea Level Pressure 30.24 in    
Wind  
Wind Speed 6 mph (SW)    
Max Wind Speed 13 mph    
Max Gust Speed 19 mph    
Visibility 10 miles    
Events      
T = Trace of Precipitation, MM = Missing Value Source: NWS Daily Summary

Daily Weather History Graph

Daily Weather History Graph

Search for Another Location

Airport or City:

Trip Planner

Search our weather history database for the weather conditions in past years. The results will help you decide how hot, cold, wet, or windy it might be!

Date:

Astronomy

Mar. 23, 2014 Rise Set
Actual Time 6:59 AM PDT 7:19 PM PDT
Civil Twilight 6:28 AM PDT 7:49 PM PDT
Nautical Twilight 5:53 AM PDT 8:25 PM PDT
Astronomical Twilight 5:16 AM PDT 9:01 PM PDT
Moon 1:57 AM PDT (3/23) 11:28 AM PDT (3/23)
Length of Visible Light 13h 20m
Length of Day
12h 20m
Waning Gibbous, 53% of the Moon is Illuminated
Mar 23
Waning Gibbous
Mar 23
Last Quarter
Mar 30
New
Apr 7
First Quarter
Apr 15
Full

Hourly Weather History & Observations

Time (PDT) Temp. Windchill Dew Point Humidity Pressure Visibility Wind Dir Wind Speed Gust Speed Precip Events Conditions
12:53 AM 34.0 °F - 23.0 °F 64% 30.18 in 10.0 mi Calm Calm - N/A   Clear
1:53 AM 32.0 °F 25.6 °F 23.0 °F 69% 30.19 in 10.0 mi West 6.9 mph - N/A   Clear
2:53 AM 28.9 °F 25.2 °F 21.0 °F 72% 30.20 in 10.0 mi SW 3.5 mph - N/A   Clear
3:53 AM 28.9 °F 20.4 °F 21.9 °F 75% 30.21 in 10.0 mi West 9.2 mph - N/A   Clear
4:53 AM 28.0 °F 18.6 °F 21.9 °F 78% 30.22 in 10.0 mi West 10.4 mph - N/A   Clear
5:53 AM 28.9 °F 21.1 °F 23.0 °F 78% 30.24 in 10.0 mi West 8.1 mph - N/A   Clear
6:53 AM 28.0 °F 18.6 °F 21.9 °F 78% 30.26 in 10.0 mi West 10.4 mph - N/A   Clear
7:53 AM 33.1 °F 26.1 °F 26.1 °F 75% 30.27 in 10.0 mi West 8.1 mph - N/A   Clear
8:53 AM 43.0 °F 41.3 °F 30.0 °F 60% 30.28 in 10.0 mi West 3.5 mph - N/A   Clear
9:53 AM 48.0 °F - 30.9 °F 52% 30.29 in 10.0 mi ESE 3.5 mph - N/A   Clear
10:53 AM 53.1 °F - 28.9 °F 40% 30.29 in 10.0 mi Calm Calm - N/A   Clear
11:53 AM 54.0 °F - 28.9 °F 38% 30.28 in 10.0 mi South 5.8 mph - N/A   Partly Cloudy
12:53 PM 55.9 °F - 28.9 °F 36% 30.27 in 10.0 mi South 6.9 mph - N/A   Partly Cloudy
1:53 PM 57.9 °F - 28.9 °F 33% 30.25 in 10.0 mi South 8.1 mph - N/A   Partly Cloudy
2:53 PM 59.0 °F - 28.9 °F 32% 30.22 in 10.0 mi Variable 5.8 mph - N/A   Partly Cloudy
3:53 PM 59.0 °F - 28.9 °F 32% 30.22 in 10.0 mi South 8.1 mph - N/A   Partly Cloudy
4:53 PM 60.1 °F - 28.9 °F 31% 30.20 in 10.0 mi SE 6.9 mph - N/A   Partly Cloudy
5:53 PM 59.0 °F - 28.0 °F 31% 30.20 in 10.0 mi SE 5.8 mph - N/A   Clear
6:53 PM 57.0 °F - 28.0 °F 33% 30.21 in 10.0 mi SE 4.6 mph - N/A   Clear
7:53 PM 51.1 °F - 28.0 °F 41% 30.22 in 10.0 mi Calm Calm - N/A   Clear
8:53 PM 42.1 °F - 26.1 °F 53% 30.23 in 10.0 mi Calm Calm - N/A   Clear
9:53 PM 39.9 °F 36.7 °F 28.0 °F 63% 30.25 in 10.0 mi WSW 4.6 mph - N/A   Clear
10:53 PM 37.0 °F 31.0 °F 27.0 °F 67% 30.26 in 10.0 mi West 8.1 mph - N/A   Clear
11:53 PM 36.0 °F 29.6 °F 27.0 °F 70% 30.27 in 10.0 mi West 8.1 mph - N/A   Clear